Weather Service Report


183 
ASUS43 KIND 241909
RWRIN 

WEATHER ROUNDUP FOR INDIANA
NATIONAL WEATHER SERVICE INDIANAPOLIS IN
300 PM EDT SUN MAY 24 2015

NOTE: "FAIR" INDICATES FEW OR NO CLOUDS BELOW 12,000 FEET WITH NO
SIGNIFICANT WEATHER AND/OR OBSTRUCTIONS TO VISIBILITY.

* - STATION DOES NOT REPORT WEATHER SUCH AS PRECIPITATION OR FOG.

+ - STATION NOT QUALITY CONTROLLED BY THE NATIONAL WEATHER SERVICE.
    USE DATA WITH CAUTION...ESPECIALLY DEWPOINT AND RELATIVE
    HUMIDITY OBSERVATIONS.

INZ001>003-010>013-019-020-242000-
NORTHWEST INDIANA
  
CITY           SKY/WX    TMP DP  RH WIND       PRES   REMARKS
GARY /AIRPORT/ CLOUDY    81  57  44 E12       30.07F                  
KNOX *+        PTSUNNY   79  54  41 S14       30.10F                  
LA PORTE +     CLOUDY    81  57  44 SE8       30.11F                  
MICHIGAN CITY+ CLOUDY    77  55  47 E3        30.10F                  
MONTICELLO +   MOSUNNY   80  60  49 S9G18     30.10F                  
RENSSELAER +   PTSUNNY   82  57  42 S17       30.08F                  
VALPARAISO     CLOUDY    79  56  45 SE9G18    30.09F                  

$$

LMZ046-743>745-242000-
SOUTHERN LAKE MICHIGAN
  
STATION/POSITION TIME  TEMP    WIND        PRES    WAVE
                       AIR SEA DIR/SP/G            HT
                 (UTC) (F)     (DEG/KT/KT) (MB)    (FT)
BURNS HARBOR     1900   77     100/  7/ 11 1019.3S
MICHIGAN CITY    1900   75      90/  7/ 10   N/A
5NW MICH CITY    1900   67 54  100/  6/  6   N/A     0

$$

INZ004-005-014>016-021>024-242000-
NORTH CENTRAL INDIANA
  
CITY           SKY/WX    TMP DP  RH WIND       PRES   REMARKS
GOSHEN         CLOUDY    79  58  48 SE10      30.14F                  
LOGANSPORT +   PTSUNNY   82  46  28 S17       30.12F                  
PERU/GRISSOM   MOSUNNY   83  58  42 S15       30.12F                  
ROCHESTER +    MOSUNNY   82  55  39 S9        30.13F                  
SOUTH BEND     CLOUDY    79  56  45 S13       30.13F                  
WARSAW +       PTSUNNY   79  57  47 S7        30.14F                  

$$

INZ006>009-017-018-025>027-242000-
NORTHEAST INDIANA
  
CITY           SKY/WX    TMP DP  RH WIND       PRES   REMARKS
ANGOLA *+      MOSUNNY   77  59  53 SE5       30.17F                  
AUBURN +       PTSUNNY   79  54  41 SW7       30.17F                  
FORT WAYNE     CLOUDY    81  57  43 S15G21    30.17F                  
HUNTINGTON +   CLOUDY    79  56  45 S9G16     30.15F                  

$$

INZ028-029-035-036-043>045-051>053-242000-
WEST CENTRAL INDIANA
  
CITY           SKY/WX    TMP DP  RH WIND       PRES   REMARKS
CRAWFORDSVL +  MOSUNNY   82  48  30 S13G18    30.12F                  
GREENCASTLE +  PTSUNNY   79  55  44 S9        30.14F                  
LAFAYETTE      PTSUNNY   80  57  45 S15G22    30.09F                  
TERRE HAUTE    PTSUNNY   82  60  47 S18       30.11F                  

$$

INZ030>032-037>040-046>048-054>057-064-065-242000-
CENTRAL INDIANA
  
CITY           SKY/WX    TMP DP  RH WIND       PRES   REMARKS
CP ATTERBURY + MOSUNNY   81  55  41 S13       30.16F                  
COLUMBUS       MOSUNNY   82  46  28 S14G21    30.17F                  
FRANKFORT +    MOSUNNY   84  55  36 SE12G22   30.14F                  
INDIANAPOLIS   PTSUNNY   83  55  38 S15G22    30.13F                  
-EAGLE CREEK   MOSUNNY   82  56  40 S13G20    30.14F                  
KOKOMO *+      MOSUNNY   82  57  42 S20G31    30.13F                  
MARION +       PTSUNNY   82  51  33 S15G22    30.16F                  
MT COMFORT *+  MOSUNNY   84  34  16 SW15G23   30.17F                  
SHELBYVILLE    MOSUNNY   85  55  35 S15G23    30.16F                  
ZIONSVILLE +   MOSUNNY   83  51  33 S20G38    30.15F                  

$$

INZ033-034-041-042-049-050-058-059-242000-
EAST CENTRAL INDIANA
  
CITY           SKY/WX    TMP DP  RH WIND       PRES   REMARKS
MUNCIE         PTSUNNY   82  52  35 S14G22    30.17F                  

$$

INZ060-061-067>069-081>083-085>088-242000-
SOUTHWEST INDIANA
  
CITY           SKY/WX    TMP DP  RH WIND       PRES   REMARKS
EVANSVILLE     PTSUNNY   82  62  50 S10       30.12F                  
HUNTINGBURG *+ PTSUNNY   82  61  47 S10G20    30.15F                  
WASHINGTON +   PTSUNNY   81  54  38 S12       30.13F                  

$$

INZ062-063-066-070>080-084-089>092-242000-
SOUTH CENTRAL AND SOUTHEAST INDIANA
  
CITY           SKY/WX    TMP DP  RH WIND       PRES   REMARKS
BLOOMINGTON    MOSUNNY   82  58  43 S13G21    30.15F                  
MADISON *+     MOSUNNY   82  45  26 SE8G17    30.21F                  
NORTH VERNON + MOSUNNY   82  54  36 S8        30.19F                  
SEYMOUR +      MOSUNNY   86  55  35 S8G20     30.17F                  

$$


Return to Home page


Western Regional Climate Center, wrcc@dri.edu